Flag for Bolivia Weather past 2 weeks in Oruro, Bolivia

Now
48 °F

Clear.


Feels Like: 48 °F
Forecast: 25 / 58 °F
Wind: No wind

Location: Cochabamba Airport

Current Time: Jul 25, 2014 at 3:45:49 AM

Latest Report: Jul 25, 2014 at 3:00 AM


Visibility: N/A

Pressure: 30.21 "Hg

Humidity: 62%

Dew point: 36 °F

Location of OruroLocation

Historic Weather in Oruro — Graph

°F

Oruro temperature yesterday

Maximum temperature yesterday: 75 °F (at 3:00 PM)
Minimum temperature yesterday: 37 °F (at 7:00 AM)
Average temperature yesterday: 58 °F

Past Weeks' High & Low Weather Summary

 TemperatureHumidityPressure
High82 °F (Jul 14, 4:00 PM)100% (Jul 19, 6:00 AM)30.54 "Hg (Jul 19, 6:00 AM)
Low37 °F (Jul 14, 6:00 AM)6% (Jul 15, 3:00 PM)30.04 "Hg (Jul 23, 5:00 PM)
Average59 °F46%30.30 "Hg
* Reported Jul 10 3:00 AM — Jul 25 3:00 AM, Oruro, Weather by CustomWeather, © 2014

Note: Actual official high and low records may vary slightly from our data, if they occured in-between our weather recording intervals... More about our weather records

Advertising

Oruro weather history for previous 24 hours

 ConditionsComfort  
Time TempWeatherWind HumidityBarometerVisibility
3:00 AM
Jul 25
48 °FClear.No wind62%30.21 "HgN/A
2:00 AM54 °FClear.10 mph51%30.21 "HgN/A
1:00 AM54 °FClear.8 mph47%30.21 "HgN/A
12:00 AM48 °FClear.No wind62%30.21 "HgN/A
11:00 PM
Jul 24
55 °FClear.6 mph41%30.21 "HgN/A
10:00 PM55 °FPassing clouds.5 mph44%30.21 "HgN/A
9:00 PM59 °FPassing clouds.8 mph39%30.18 "HgN/A
8:00 PM61 °FPassing clouds.5 mph34%30.15 "HgN/A
7:00 PM61 °FPassing clouds.12 mph36%30.12 "HgN/A
6:00 PM66 °FPassing clouds.9 mph26%30.09 "HgN/A
5:00 PM72 °FPassing clouds.13 mph19%30.09 "HgN/A
4:00 PM73 °FPassing clouds.15 mph17%30.09 "HgN/A
3:00 PM75 °FPassing clouds.16 mph14%30.09 "HgN/A
2:00 PM73 °FPassing clouds.7 mph14%30.15 "HgN/A
1:00 PM70 °FPassing clouds.5 mph18%30.18 "HgN/A
12:00 PM68 °FPassing clouds.No wind21%30.24 "HgN/A
11:00 AM64 °FPassing clouds.No wind28%30.27 "Hg6 mi
10:00 AM61 °FClear.No wind36%30.33 "Hg4 mi
9:00 AM54 °FClear.No wind47%30.33 "Hg3 mi
8:00 AM45 °FPassing clouds.No wind66%30.30 "Hg3 mi
7:00 AM37 °FClear.No wind81%30.30 "Hg3 mi
6:00 AM39 °FClear.No wind75%30.27 "Hg6 mi
5:00 AM39 °FClear.No wind75%30.27 "Hg6 mi
4:00 AM41 °FClear.No wind70%30.24 "HgN/A
Weather by CustomWeather, © 2014

See weather overviewHow to use our weather pages